[[{"header":{"parameterUnit":"m.s-1","parameterCategory":1,"la1":30.2991,"la2":30.254,"lo1":-89.0895,"lo2":-89.0444,"dy":0.0017,"dx":0.0017,"nx":28,"ny":28,"refTime":"2023-08-14T03:00:00:Z","depth":0,"parameterNumber":2,"parameterNumberName":"U-component_of_WINDS"},"data":[0,0,0,0,0,0,0,0,0,0,0,0,0,0,0,0,0,0,0,0,0,0,0,0,0,0,0,0,0,0,0,0,0,0,0,0,0,0,0,0,0,0,0,0,0,0,0,0,0,0,0,0,0,0,0,0,0,0,1.4055,1.4056,0,1.4162,1.4164,1.4165,1.4202,1.4202,1.4201,1.4201,1.4315,1.4319,1.4322,0,0,0,0,0,0,0,0,0,0,0,0,0,1.3886,1.3889,1.4055,1.4056,1.4057,1.4162,1.4164,1.4165,1.4202,1.4202,1.4201,1.4201,1.4314,1.4318,1.4322,0,0,0,0,0,0,0,0,0,0,0,0,0,1.3973,1.389,1.4055,1.4088,1.4093,1.4162,1.4164,1.4166,1.4202,1.4202,1.4201,1.4201,1.4313,1.4318,1.4323,1.4368,0,0,1.4339,1.4341,0,0,0,0,0,0,0,0,1.3968,1.3979,1.4082,1.4086,1.4091,1.4168,1.4146,1.4233,1.4203,1.4161,1.4201,1.42,1.4267,1.4276,1.4298,1.4373,1.4378,1.4339,1.4342,1.4344,1.4346,0,0,0,0,0,0,0,1.3962,1.3975,1.4097,1.4084,1.4089,1.41,1.4111,1.4163,1.4216,1.4164,1.4167,1.4179,1.4269,1.4293,1.4301,1.4379,1.4339,1.4344,1.4347,1.4349,1.4498,1.4499,0,0,0,0,0,0,1.395,1.3969,1.4094,1.4101,1.4027,1.4103,1.4116,1.4144,1.4216,1.4226,1.418,1.4181,1.4284,1.4295,1.4305,1.4362,1.4344,1.4349,1.4352,1.4497,1.4498,1.4499,0,0,0,0,0,0,1.3946,1.396,1.409,1.4036,1.4053,1.4107,1.4138,1.4147,1.417,1.4227,1.4238,1.4193,1.4284,1.4298,1.4352,1.4367,1.4352,1.4356,1.4496,1.4497,1.4498,1.4477,0,0,0,0,0,0,1.3941,1.3959,1.3975,1.4036,1.4056,1.4133,1.4139,1.4149,1.4178,1.418,1.4243,1.4253,1.4285,1.4344,1.4357,1.4374,1.436,1.4495,1.4497,1.4498,1.4477,1.4478,1.4478,0,0,0,0,0,1.3935,1.3966,1.3976,1.3991,1.4077,1.4134,1.4146,1.418,1.4179,1.4197,1.4234,1.4251,1.4363,1.4349,1.4364,1.4383,1.4494,1.4496,1.4498,1.4476,1.4477,1.4478,0,0,0,0,0,0,1.3906,1.3974,1.3986,1.4037,1.4079,1.414,1.4163,1.418,1.4225,1.4225,1.4268,1.4282,1.4333,1.4363,1.4346,1.443,1.443,1.4435,1.4408,1.441,1.441,1.4402,1.4365,0,0,0,0,0,1.3906,1.3945,1.4003,1.4042,1.4063,1.4109,1.4135,1.4158,1.4204,1.4223,1.4264,1.4309,1.4355,1.4384,1.4429,1.4481,1.4496,1.4502,1.4502,1.4503,1.4507,1.4538,1.4541,1.4505,1.4505,1.4505,0,0,1.3906,1.3948,1.397,1.4038,1.4073,1.4114,1.4124,1.4167,1.4198,1.423,1.4283,1.4315,1.4368,1.4422,1.4447,1.4449,1.452,1.4505,1.4505,1.4509,1.454,1.4543,1.4546,1.4507,1.4506,1.4506,0,0,1.3926,1.3961,1.3999,1.4034,1.4087,1.4117,1.4126,1.4185,1.4207,1.426,1.4285,1.4324,1.4401,1.4438,1.4467,1.4502,1.452,1.4516,1.452,1.4549,1.4552,1.4555,1.4568,1.4572,1.4519,1.4519,1.4519,0,1.392,1.3981,1.4016,1.4057,1.4087,1.4116,1.4155,1.4188,1.4253,1.4274,1.4274,1.4372,1.441,1.4473,1.4481,1.4504,1.4516,1.4509,1.4549,1.4552,1.4555,1.4568,1.4573,1.4519,1.4519,1.4519,1.4519,0,1.397,1.4013,1.4037,1.4098,1.413,1.417,1.4213,1.4241,1.4262,1.4293,1.4348,1.4395,1.445,1.4467,1.4488,1.4533,1.4532,1.454,1.4541,1.4557,1.457,1.4575,1.4518,1.4518,1.4518,1.4518,0,0,1.3976,1.4056,1.4064,1.4093,1.4154,1.4188,1.4229,1.4282,1.4306,1.4351,1.4388,1.4453,1.446,1.4493,1.4519,1.4545,1.457,1.455,1.4552,1.4552,1.4624,1.4618,1.4623,1.4582,1.4583,1.4584,1.462,0,1.4005,1.4079,1.4112,1.4173,1.4213,1.4241,1.4278,1.432,1.4351,1.439,1.4425,1.447,1.4476,1.4496,1.4523,1.4561,1.4585,1.4559,1.4618,1.462,1.4604,1.463,1.4623,1.4655,1.4625,1.4626,1.4626,0,1.4048,1.4092,1.4155,1.4212,1.423,1.4262,1.4313,1.435,1.4399,1.442,1.4456,1.448,1.4527,1.4524,1.4589,1.4571,1.4597,1.4619,1.4621,1.4629,1.4624,1.4638,1.4665,1.467,1.4635,1.4634,1.4633,0,1.4047,1.4121,1.4169,1.4192,1.4259,1.4281,1.431,1.4358,1.4388,1.4434,1.4454,1.4504,1.4532,1.4571,1.4609,1.4603,1.4671,1.4671,1.4691,1.469,1.4704,1.4703,1.4737,1.472,1.472,1.472,1.472,0,1.4076,1.4113,1.4169,1.4198,1.4242,1.4281,1.4323,1.4355,1.4397,1.4435,1.4463,1.4498,1.4545,1.4587,1.4617,1.4667,1.4679,1.4698,1.4706,1.4696,1.4693,1.4714,1.4712,1.4721,1.4721,1.4721,1.4721,0,1.4081,1.4119,1.4174,1.4232,1.4248,1.4278,1.4329,1.4359,1.4391,1.4438,1.4451,1.4502,1.4551,1.4593,1.4659,1.4679,1.4731,1.474,1.4714,1.4718,1.4735,1.4733,1.4784,1.4793,1.477,1.477,1.477,0,1.4097,1.4127,1.4188,1.4215,1.4243,1.4285,1.4315,1.4355,1.4385,1.4443,1.4467,1.4519,1.4562,1.4641,1.4684,1.4735,1.4745,1.476,1.4753,1.4742,1.4746,1.4744,1.4747,1.476,1.476,1.476,1.476,0,1.4121,1.4139,1.4181,1.4229,1.4264,1.4305,1.4347,1.4367,1.4414,1.4447,1.4498,1.4531,1.4598,1.4649,1.4705,1.4737,1.4757,1.4762,1.4769,1.4759,1.4743,1.4752,1.4716,1.476,1.476,1.476,1.476,1.476,1.4133,1.4161,1.4209,1.4255,1.429,1.4328,1.4359,1.4395,1.4437,1.4493,1.4515,1.4567,1.4616,1.4692,1.4724,1.4766,1.4769,1.4779,1.4782,1.4784,1.4783,1.4736,1.4776,1.4777,1.4777,1.4777,1.4777,0,1.4159,1.4191,1.4233,1.429,1.4326,1.4341,1.4387,1.4417,1.4462,1.4506,1.4547,1.4606,1.4656,1.4703,1.4756,1.478,1.4791,1.4793,1.4792,1.4799,1.4777,1.4766,1.4783,1.4783,1.4783,1.4783,1.4783,1.4783,1.4177,1.4225,1.4249,1.4315,1.4348,1.4397,1.4423,1.4459,1.4494,1.4557,1.4598,1.4628,1.4674,1.473,1.4777,1.479,1.4808,1.4807,1.4823,1.4802,1.48,1.4799,1.4789,1.4811,1.4811,1.4841,1.4841,1.4842]},{"header":{"parameterUnit":"m.s-1","parameterCategory":1,"la1":30.2991,"la2":30.254,"lo1":-89.0895,"lo2":-89.0444,"dy":0.0017,"dx":0.0017,"nx":28,"ny":28,"refTime":"2023-08-14T03:00:00:Z","depth":0,"parameterNumber":3,"parameterNumberName":"V-component_of_WINDS"},"data":[0,0,0,0,0,0,0,0,0,0,0,0,0,0,0,0,0,0,0,0,0,0,0,0,0,0,0,0,0,0,0,0,0,0,0,0,0,0,0,0,0,0,0,0,0,0,0,0,0,0,0,0,0,0,0,0,0,0,2.245,2.245,0,2.2459,2.2459,2.2459,2.2469,2.2469,2.247,2.247,2.2477,2.2477,2.2477,0,0,0,0,0,0,0,0,0,0,0,0,0,2.2436,2.2437,2.245,2.245,2.245,2.2459,2.2459,2.2459,2.2469,2.2469,2.247,2.247,2.2477,2.2477,2.2477,0,0,0,0,0,0,0,0,0,0,0,0,0,2.2443,2.2437,2.245,2.2456,2.2457,2.2459,2.2459,2.2459,2.2469,2.2469,2.247,2.247,2.2477,2.2477,2.2477,2.2472,0,0,2.2477,2.2477,0,0,0,0,0,0,0,0,2.2443,2.2444,2.2455,2.2456,2.2456,2.2463,2.2457,2.2463,2.2469,2.2464,2.247,2.247,2.2472,2.2472,2.2473,2.2472,2.2473,2.2477,2.2477,2.2477,2.2477,0,0,0,0,0,0,0,2.2443,2.2444,2.2453,2.2455,2.2456,2.2457,2.2458,2.2458,2.2467,2.2465,2.2466,2.2467,2.2472,2.2473,2.2474,2.2473,2.2477,2.2477,2.2477,2.2477,2.2465,2.2465,0,0,0,0,0,0,2.2442,2.2443,2.2453,2.2453,2.245,2.2457,2.2459,2.2461,2.2467,2.2468,2.2467,2.2467,2.2473,2.2473,2.2474,2.2467,2.2477,2.2477,2.2477,2.2465,2.2465,2.2465,0,0,0,0,0,0,2.2441,2.2442,2.2452,2.2448,2.245,2.2457,2.2459,2.2461,2.2462,2.2468,2.2469,2.2466,2.2473,2.2474,2.2472,2.2467,2.2477,2.2477,2.2466,2.2465,2.2465,2.2454,0,0,0,0,0,0,2.2441,2.2442,2.2442,2.2448,2.245,2.2452,2.2459,2.2461,2.2462,2.2463,2.2468,2.2469,2.2473,2.2472,2.2472,2.2468,2.2477,2.2466,2.2466,2.2465,2.2455,2.2453,2.2452,0,0,0,0,0,2.244,2.2439,2.2442,2.2443,2.245,2.2452,2.2452,2.2458,2.2462,2.2461,2.2464,2.2469,2.2468,2.2472,2.2472,2.2467,2.2467,2.2466,2.2465,2.2456,2.2454,2.2452,0,0,0,0,0,0,2.2431,2.244,2.2443,2.2444,2.2447,2.2453,2.2452,2.2457,2.2458,2.2459,2.2465,2.2466,2.2463,2.2465,2.2469,2.2461,2.2468,2.2467,2.246,2.2459,2.2457,2.2456,2.2477,0,0,0,0,0,2.2429,2.2431,2.2438,2.2438,2.2439,2.2445,2.2446,2.245,2.2453,2.2455,2.2458,2.246,2.2459,2.2459,2.246,2.2455,2.2455,2.2452,2.245,2.2449,2.2448,2.2443,2.2441,2.2462,2.2462,2.2462,0,0,2.2426,2.243,2.2431,2.2436,2.2439,2.2439,2.2446,2.2447,2.2446,2.2454,2.2453,2.2455,2.2457,2.2453,2.2451,2.2455,2.2442,2.2448,2.2447,2.2447,2.2442,2.244,2.2438,2.2462,2.2462,2.2462,0,0,2.2418,2.2423,2.2422,2.2424,2.2428,2.2432,2.2432,2.2437,2.2438,2.2437,2.2442,2.244,2.2441,2.2441,2.2442,2.2431,2.2435,2.2431,2.2423,2.2418,2.2416,2.2415,2.2409,2.2407,2.243,2.243,2.243,0,2.2413,2.2414,2.2421,2.242,2.2421,2.2428,2.2426,2.2428,2.2431,2.2431,2.2434,2.2433,2.2435,2.243,2.2427,2.2428,2.2426,2.243,2.2416,2.2415,2.2413,2.2407,2.2405,2.2429,2.2429,2.2429,2.243,0,2.2406,2.2407,2.2405,2.2408,2.2409,2.2408,2.2412,2.2412,2.2415,2.2417,2.2413,2.2416,2.2416,2.2415,2.2418,2.2409,2.2411,2.2415,2.2421,2.241,2.2405,2.2403,2.2428,2.2429,2.2429,2.2429,0,0,2.2395,2.24,2.2399,2.24,2.2403,2.2403,2.24,2.24,2.2398,2.24,2.2396,2.2395,2.2398,2.2398,2.2401,2.2397,2.2385,2.2402,2.2402,2.2397,2.2372,2.2368,2.2366,2.2388,2.2387,2.2387,2.2371,0,2.2388,2.2385,2.2389,2.2385,2.2384,2.2389,2.2386,2.2387,2.2388,2.2386,2.2388,2.2386,2.2391,2.2391,2.2387,2.2388,2.238,2.2389,2.2383,2.2382,2.2381,2.2363,2.236,2.2345,2.237,2.2369,2.2369,0,2.2379,2.238,2.2375,2.2376,2.2376,2.2374,2.2372,2.2371,2.237,2.2371,2.237,2.2373,2.2368,2.2375,2.2367,2.2372,2.237,2.2369,2.2369,2.2368,2.2375,2.236,2.2341,2.2338,2.2366,2.2367,2.2367,0,2.237,2.2369,2.2365,2.2365,2.2367,2.2365,2.2365,2.2365,2.2364,2.2362,2.236,2.2358,2.2356,2.2353,2.2354,2.2359,2.2345,2.2352,2.2344,2.2344,2.234,2.234,2.2319,2.2341,2.2341,2.2341,2.2341,0,2.236,2.2357,2.2361,2.2358,2.2353,2.2357,2.2352,2.2352,2.2351,2.2348,2.2352,2.2348,2.235,2.2346,2.2347,2.2338,2.2338,2.2337,2.2337,2.2336,2.2336,2.2334,2.2334,2.234,2.234,2.234,2.2341,0,2.2349,2.2352,2.2348,2.2349,2.2349,2.2345,2.2345,2.2341,2.2342,2.2337,2.2336,2.2337,2.2331,2.2332,2.2327,2.2327,2.2316,2.2318,2.2316,2.2316,2.2307,2.2307,2.2282,2.2278,2.2304,2.2304,2.2304,0,2.2343,2.234,2.234,2.2338,2.2338,2.2335,2.2333,2.2335,2.2333,2.233,2.2326,2.2321,2.2317,2.2308,2.2307,2.2301,2.2302,2.2294,2.2301,2.2299,2.23,2.2299,2.2298,2.2292,2.2292,2.2291,2.2291,0,2.2331,2.2332,2.2329,2.2326,2.2324,2.2321,2.2319,2.2317,2.2319,2.2315,2.231,2.2306,2.2299,2.2293,2.2287,2.2286,2.2287,2.2289,2.2286,2.2285,2.2283,2.2281,2.231,2.2289,2.2289,2.229,2.229,2.229,2.2321,2.2318,2.2316,2.2312,2.2311,2.2308,2.2304,2.2303,2.2299,2.2294,2.2295,2.2288,2.2284,2.2276,2.2273,2.2266,2.2269,2.2266,2.2265,2.2264,2.2262,2.2285,2.2266,2.2266,2.2266,2.2266,2.2266,0,2.2308,2.2306,2.2303,2.2299,2.2295,2.2298,2.2294,2.2291,2.2284,2.2281,2.2276,2.2268,2.2261,2.2258,2.2251,2.2246,2.2246,2.2243,2.2243,2.2242,2.2261,2.2263,2.2243,2.2243,2.2243,2.2243,2.2243,2.2243,2.23,2.2294,2.2293,2.2285,2.2283,2.2276,2.2274,2.227,2.2267,2.2257,2.2252,2.225,2.2246,2.2238,2.223,2.2229,2.2226,2.2222,2.2221,2.2239,2.2241,2.2243,2.2245,2.2222,2.2222,2.2203,2.2203,2.2203]}]]